Location: Unspecified
(0.0000°N, 0.0000°E)
Time: 14:04:38
(UTC+01:00)

SWIFT - Visible Passes

Search period start: 31 January 2015 00:00
Search period end: 10 February 2015 00:00
Orbit: 556 x 573 km, 20.6° (Epoch: 29 January)

Date Brightness Start Highest point End Pass type
(mag) Time Alt. Az. Time Alt. Az. Time Alt. Az.
31 Jan 3.5 19:38:10 10° SW 19:42:08 35° SSE 19:46:05 10° E visible
31 Jan 4.2 21:20:05 10° WSW 21:22:17 28° W 21:22:17 28° W visible
01 Feb 4.6 05:57:08 11° N 05:58:33 13° NNE 06:00:39 10° NE visible
01 Feb 2.9 19:35:44 10° SW 19:39:57 50° SSE 19:44:10 10° E visible
01 Feb 4.3 21:18:06 10° W 21:20:17 25° WNW 21:20:17 25° WNW visible
02 Feb 4.3 05:55:07 15° N 05:56:28 18° NNE 05:59:24 10° ENE visible
02 Feb 2.5 19:33:25 10° WSW 19:37:46 76° SSE 19:42:05 10° ENE visible
02 Feb 4.5 21:16:15 10° W 21:18:17 21° WNW 21:18:17 21° WNW visible
03 Feb 3.9 05:53:07 21° N 05:54:20 24° NNE 05:57:49 10° ENE visible
03 Feb 2.5 19:31:12 10° WSW 19:35:33 73° NNW 19:39:51 10° ENE visible
03 Feb 4.7 21:14:34 10° WNW 21:16:17 17° NW 21:16:17 17° NW visible
04 Feb 3.4 05:51:06 29° N 05:52:10 34° NNE 05:56:03 10° E visible
04 Feb 4.9 21:13:07 10° NW 21:14:16 13° NW 21:14:16 13° NW visible
05 Feb 2.8 05:49:06 42° NNW 05:49:58 49° NNE 05:54:05 10° E visible
05 Feb 5.1 21:12:06 10° NW 21:12:15 10° NW 21:12:15 10° NW visible
06 Feb 2.3 05:47:05 60° NW 05:47:44 74° NNE 05:51:59 10° ESE visible
07 Feb 2.2 05:45:03 66° WSW 05:45:29 74° SSW 05:49:44 10° ESE visible
08 Feb 2.7 05:43:01 49° SSW 05:43:15 49° SSW 05:47:21 10° SE visible
09 Feb 3.3 05:40:56 34° SSW 05:41:00 34° SSW 05:44:52 10° SE visible
